This demonstration page uses our WeatherBlox Daily Observations layout. Learn more.

Left ArrowRight Arrow

Hourly Observations for October 24, 2016

Temp ( °F °C ) Dew Point ( °F °C ) Humidity (%) Winds ( mph kmh ) Pressure ( in mb ) Visibility ( mi km ) Precip ( " mm )
12:17 am 00:17 Clear 57 14 48 9 72 72 W 7 11 30.06 1018 10 16.0934 N/A
12:37 am 00:37 Clear 55 13 48 9 77 77 W 7 11 30.06 1018 10 16.0934 N/A
12:57 am 00:57 Clear 55 13 50 10 82 82 W 8 13 30.06 1018 10 16.0934 N/A
1:17 am 01:17 Clear 55 13 48 9 77 77 W 7 11 30.06 1018 10 16.0934 N/A
1:36 am 01:36 Clear 54 12 48 9 82 82 WNW 8 13 30.12 1020 10 16.0934 N/A
1:57 am 01:57 Clear 55 13 48 9 77 77 NW 8 13 30.09 1019 10 16.0934 N/A
2:17 am 02:17 Clear 55 13 46 8 72 72 NW 7 11 30.09 1019 10 16.0934 N/A
2:36 am 02:36 Clear 55 13 46 8 72 72 NW 7 11 30.09 1019 10 16.0934 N/A
2:57 am 02:57 Clear 54 12 46 8 77 77 NNW 9 15 30.12 1020 10 16.0934 N/A
3:17 am 03:17 Clear 52 11 45 7 77 77 NNW 9 15 30.15 1021 10 16.0934 N/A
3:36 am 03:36 Clear 52 11 45 7 77 77 NNW 8 13 30.15 1021 10 16.0934 N/A
3:57 am 03:57 Clear 50 10 45 7 82 82 NNW 7 11 30.15 1021 10 16.0934 N/A
4:17 am 04:17 Clear 50 10 46 8 88 88 NNW 8 13 30.15 1021 10 16.0934 N/A
4:36 am 04:36 Clear 50 10 46 8 88 88 NNW 7 11 30.18 1022 10 16.0934 N/A
4:57 am 04:57 Clear 50 10 46 8 88 88 NNW 9 15 30.18 1022 10 16.0934 N/A
5:17 am 05:17 Clear 50 10 46 8 88 88 NNW 9 15 30.18 1022 10 16.0934 N/A
5:36 am 05:36 Clear 50 10 46 8 88 88 N 9 15 30.18 1022 10 16.0934 N/A
5:57 am 05:57 Partly Cloudy 50 10 48 9 94 94 N 12 19 30.21 1023 10 16.0934 N/A
6:16 am 06:16 Partly Cloudy 50 10 48 9 94 94 N 12 19 30.21 1023 10 16.0934 N/A
6:37 am 06:37 Partly Cloudy 50 10 46 8 88 88 N 9 15 30.21 1023 10 16.0934 N/A
6:57 am 06:57 Clear 48 9 46 8 94 94 N 7 11 30.21 1023 10 16.0934 N/A
7:16 am 07:16 Clear 48 9 46 8 94 94 N 8 13 30.21 1023 10 16.0934 N/A
7:37 am 07:37 Clear 48 9 46 8 94 94 N 8 13 30.24 1024 10 16.0934 N/A
7:57 am 07:57 Clear 48 9 46 8 94 94 N 7 11 30.24 1024 10 16.0934 N/A
8:16 am 08:16 Sunny 46 8 45 7 93 93 N 5 7 30.24 1024 10 16.0934 N/A
8:37 am 08:37 Sunny 46 8 45 7 93 93 N 5 7 30.24 1024 10 16.0934 N/A
8:57 am 08:57 Sunny 46 8 45 7 93 93 N 3 6 30.27 1025 10 16.0934 N/A
9:16 am 09:16 Sunny 50 10 46 8 88 88 N 6 9 30.27 1025 10 16.0934 N/A
9:37 am 09:37 Sunny 52 11 46 8 82 82 N 7 11 30.3 1026 10 16.0934 N/A
9:57 am 09:57 Sunny 52 11 46 8 82 82 N 8 13 30.3 1026 10 16.0934 N/A
10:17 am 10:17 Sunny 54 12 45 7 72 72 N 9 15 30.3 1026 10 16.0934 N/A
10:37 am 10:37 Sunny 54 12 45 7 72 72 N 12 19 30.3 1026 10 16.0934 N/A
10:57 am 10:57 Sunny 55 13 45 7 67 67 N 12 19 30.33 1027 10 16.0934 N/A
11:17 am 11:17 Sunny 55 13 45 7 67 67 N 13 20 30.33 1027 10 16.0934 N/A
11:37 am 11:37 Partly Cloudy 57 14 45 7 63 63 N 13 20 30.33 1027 10 16.0934 N/A
11:57 am 11:57 Mostly Cloudy 55 13 45 7 67 67 N 12 19 30.33 1027 10 16.0934 N/A
12:17 pm 12:17 Partly Cloudy 57 14 45 7 63 63 N 13 20 30.33 1027 10 16.0934 N/A
12:37 pm 12:37 Partly Cloudy 59 15 43 6 55 55 N 9 15 30.3 1026 10 16.0934 N/A
12:57 pm 12:57 Partly Cloudy 59 15 45 7 59 59 NNW 10 17 30.3 1026 10 16.0934 N/A
1:17 pm 13:17 Sunny 59 15 45 7 59 59 N 10 17 30.3 1026 10 16.0934 N/A
1:37 pm 13:37 Partly Cloudy 57 14 45 7 63 63 NNW 9 15 30.33 1027 10 16.0934 N/A
1:57 pm 13:57 Partly Cloudy 59 15 45 7 59 59 NNW 9 15 30.3 1026 10 16.0934 N/A
2:17 pm 14:17 Partly Cloudy 61 16 45 7 55 55 NW 10 17 30.3 1026 10 16.0934 N/A
2:37 pm 14:37 Partly Cloudy 59 15 45 7 59 59 NNW 6 9 30.3 1026 10 16.0934 N/A
2:57 pm 14:57 Partly Cloudy 61 16 45 7 55 55 NNW 10 17 30.3 1026 10 16.0934 N/A
3:16 pm 15:16 Partly Cloudy 61 16 43 6 52 52 N 10 17 30.3 1026 10 16.0934 N/A
3:37 pm 15:37 Sunny 61 16 45 7 55 55 NNW 7 11 30.3 1026 10 16.0934 N/A
3:57 pm 15:57 Sunny 61 16 43 6 52 52 N 6 9 30.3 1026 10 16.0934 N/A
4:16 pm 16:16 Sunny 61 16 43 6 52 52 NNW 9 15 30.3 1026 10 16.0934 N/A
4:37 pm 16:37 Sunny 61 16 43 6 52 52 N 8 13 30.3 1026 10 16.0934 N/A
4:57 pm 16:57 Sunny 61 16 43 6 52 52 N 7 11 30.3 1026 10 16.0934 N/A
5:17 pm 17:17 Sunny 61 16 43 6 52 52 NNW 6 9 30.3 1026 10 16.0934 N/A
5:37 pm 17:37 Sunny 59 15 43 6 55 55 N 8 13 30.3 1026 10 16.0934 N/A
5:57 pm 17:57 Sunny 59 15 41 5 51 51 N 7 11 30.3 1026 10 16.0934 N/A
6:16 pm 18:16 Sunny 57 14 41 5 55 55 N 7 11 30.33 1027 10 16.0934 N/A
6:37 pm 18:37 Sunny 55 13 41 5 59 59 N 7 11 30.33 1027 10 16.0934 N/A
6:57 pm 18:57 Clear 52 11 41 5 67 67 N 6 9 30.33 1027 10 16.0934 N/A
7:16 pm 19:16 Clear 52 11 41 5 67 67 N 5 7 30.33 1027 10 16.0934 N/A
7:37 pm 19:37 Clear 50 10 41 5 71 71 N 3 6 30.33 1027 10 16.0934 N/A
7:56 pm 19:56 Clear 50 10 41 5 71 71 NNW 5 7 30.33 1027 10 16.0934 N/A
8:17 pm 20:17 Clear 48 9 41 5 76 76 N N/A 30.36 1028 10 16.0934 N/A
8:37 pm 20:37 Clear 46 8 41 5 82 82 N N/A 30.36 1028 10 16.0934 N/A
8:56 pm 20:56 Clear 46 8 41 5 82 82 N N/A 30.36 1028 10 16.0934 N/A
9:17 pm 21:17 Clear 45 7 41 5 87 87 N N/A 30.36 1028 10 16.0934 N/A
9:37 pm 21:37 Clear 45 7 41 5 87 87 N 5 7 30.36 1028 10 16.0934 N/A
9:56 pm 21:56 Clear 45 7 39 4 81 81 N 8 13 30.36 1028 10 16.0934 N/A
10:17 pm 22:17 Clear 45 7 39 4 81 81 N 8 13 30.39 1029 10 16.0934 N/A
10:37 pm 22:37 Clear 45 7 39 4 81 81 N 6 9 30.39 1029 10 16.0934 N/A
10:56 pm 22:56 Clear 43 6 39 4 87 87 N 5 7 30.42 1030 10 16.0934 N/A
11:17 pm 23:17 Clear 43 6 39 4 87 87 N 5 7 30.42 1030 10 16.0934 N/A
11:37 pm 23:37 Clear 43 6 39 4 87 87 N 3 6 30.42 1030 10 16.0934 N/A
11:56 pm 23:56 Clear 41 5 37 3 87 87 N N/A 30.42 1030 10 16.0934 N/A

Powered by AerisWeather